INSAT-3DS

Last updated on Sun Nov 02 2025 00:02:23 GMT+0000 (Coordinated Universal Time)

1 58990U 24033A 25305.55548369 -.00000145 00000+0 00000+0 0 9992 2 58990 0.0950 83.9922 0001539 134.9975 104.2076 1.00271331 44787
UTC large
Height (km)
Speed (km/s)
/
Latitude / Longitude
Inclination (degrees)
Orbital Period (minutes)
Azimuth
Elevation
Range (km)
Doppler Factor

Next 0 passes for location: London (51.5072 / 0.1276)

Sorry there are no passes over London.